Fort Sill, OK

10:16 PM CDT on April 26, 2018 (GMT -0500)
Post Army Air Field

Weather History for KFSI - March, 2014

Change the Weather History Date:

Thursday, March 27, 2014

  Actual Average Record
Temperature  
Mean Temperature 69 °F -  
Max Temperature 81 °F 70 °F 98 °F (1971)
Min Temperature 57 °F 43 °F 18 °F (1955)
Cooling Degree Days 4    
Growing Degree Days 19 (Base 50)    
Moisture  
Dew Point 45 °F    
Average Humidity 55    
Maximum Humidity 91    
Minimum Humidity 12    
Precipitation  
Precipitation 0.00 in - - ()
Sea Level Pressure  
Sea Level Pressure 29.64 in    
Wind  
Wind Speed 16 mph (SW)    
Max Wind Speed 28 mph    
Max Gust Speed 33 mph    
Visibility 9 miles    
Events      
Averages and records for this station are not official NWS values.
T = Trace of Precipitation, MM = Missing Value Source: NWS Daily Summary

Daily Weather History Graph

Daily Weather History Graph

Search for Another Location

Airport or City:

Astronomy

Mar. 27, 2014 Rise Set
Actual Time 7:27 AM CDT 7:50 PM CDT
Civil Twilight 7:02 AM CDT 8:16 PM CDT
Nautical Twilight 6:32 AM CDT 8:45 PM CDT
Astronomical Twilight 6:02 AM CDT 9:15 PM CDT
Moon 5:11 AM CDT 4:47 PM CDT
Length of Visible Light 13h 13m
Length of Day
12h 23m
Waning Crescent, 13% of the Moon is Illuminated
Mar 27
Waning Crescent
Mar 30
New
Apr 7
First Quarter
Apr 15
Full
Apr 22
Last Quarter

Hourly Weather History & Observations

Time (CDT) Temp. Dew Point Humidity Pressure Visibility Wind Dir Wind Speed Gust Speed Precip Events Conditions
12:58 AM 57.4 °F 50.7 °F 78% 29.71 in 10.0 mi South 15.0 mph - N/A   Overcast
1:58 AM 58.1 °F 52.3 °F 81% 29.69 in 10.0 mi South 16.1 mph - N/A   Overcast
2:58 AM 58.8 °F 53.4 °F 82% 29.68 in 10.0 mi South 15.0 mph - N/A   Overcast
3:58 AM 59.2 °F 54.1 °F 83% 29.65 in 10.0 mi South 15.0 mph 21.9 mph N/A   Overcast
4:33 AM 59.0 °F 55.4 °F 88% 29.65 in 10.0 mi South 16.1 mph 21.9 mph N/A   Overcast
4:58 AM 59.4 °F 55.0 °F 86% 29.64 in 10.0 mi South 16.1 mph - N/A   Overcast
5:58 AM 59.5 °F 55.8 °F 87% 29.62 in 10.0 mi South 17.3 mph - N/A   Overcast
6:18 AM 59.0 °F 55.4 °F 88% 29.62 in 10.0 mi South 16.1 mph 23.0 mph N/A   Overcast
6:58 AM 59.9 °F 56.3 °F 88% 29.62 in 10.0 mi South 16.1 mph 23.0 mph N/A   Overcast
7:58 AM 59.5 °F 57.0 °F 91% 29.65 in 10.0 mi South 15.0 mph - N/A   Overcast
8:58 AM 59.9 °F 57.4 °F 91% 29.68 in 10.0 mi South 10.4 mph - N/A   Mostly Cloudy
9:03 AM 60.8 °F 57.2 °F 88% 29.69 in 10.0 mi South 11.5 mph - N/A   Mostly Cloudy
9:18 AM 62.6 °F 57.2 °F 82% 29.69 in 10.0 mi South 13.8 mph - N/A   Scattered Clouds
9:58 AM 64.8 °F 57.7 °F 78% 29.67 in 10.0 mi SSW 15.0 mph 24.2 mph N/A   Clear
10:58 AM 69.3 °F 57.0 °F 65% 29.66 in 10.0 mi SSW 16.1 mph 27.6 mph N/A   Partly Cloudy
11:58 AM 73.0 °F 52.0 °F 48% 29.65 in 10.0 mi SW 24.2 mph 31.1 mph N/A   Clear
12:58 PM 75.2 °F 46.6 °F 36% 29.62 in 10.0 mi SW 27.6 mph 33.4 mph N/A   Clear
1:58 PM 77.7 °F 41.5 °F 27% 29.60 in 10.0 mi WSW 18.4 mph 27.6 mph N/A   Clear
2:36 PM 80.6 °F 39.2 °F 23% 29.61 in 10.0 mi West 18.4 mph 26.5 mph N/A   Clear
2:58 PM 80.6 °F 28.6 °F 15% 29.58 in 10.0 mi West 19.6 mph 32.2 mph N/A   Clear
3:58 PM 81.1 °F 28.6 °F 15% 29.58 in 10.0 mi West 18.4 mph 28.8 mph N/A   Clear
4:58 PM 80.8 °F 26.1 °F 13% 29.58 in 7.0 mi West 17.3 mph 32.2 mph N/A   Partly Cloudy
5:08 PM 80.6 °F 26.6 °F 14% 29.60 in 4.0 mi West 10.4 mph 23.0 mph N/A   Widespread Dust
5:33 PM 80.6 °F 26.6 °F 14% 29.60 in 4.0 mi West 16.1 mph 21.9 mph N/A   Widespread Dust
5:53 PM 80.6 °F 26.6 °F 14% 29.61 in 5.0 mi West 16.1 mph 23.0 mph N/A   Widespread Dust
5:58 PM 80.4 °F 25.7 °F 13% 29.59 in 5.0 mi West 19.6 mph 26.5 mph N/A   Widespread Dust
6:25 PM 80.6 °F 23.0 °F 12% 29.62 in 6.0 mi West 16.1 mph 25.3 mph N/A   Widespread Dust
9:58 PM 60.6 °F 36.7 °F 41% 29.70 in 10.0 mi NNE 12.7 mph - N/A   Clear
10:58 PM 63.5 °F 42.3 °F 46% 29.73 in 10.0 mi NE 10.4 mph - N/A   Clear
11:58 PM 60.8 °F 43.7 °F 53% 29.73 in 10.0 mi North 13.8 mph - N/A   Clear